| time (UTC) | temp F | wind direction | speed knots | gust knots | rain 1hr in | rain 24hr in | rain mn in | humidity % | barometer mb |
| 20260504081529 | 49 | 160 | 2.6 | 6.1 | 0.00 | 0.00 | 0.00 | 72 | 1010.0 |
| 20260504050001 | 51 | 167 | 1.7 | 5.2 | 0.00 | 0.00 | 0.00 | 66 | 1012.3 |
| 20260504044602 | 51 | 186 | 0.9 | 5.2 | 0.00 | 0.00 | 0.00 | 67 | 1012.3 |
| 20260504043056 | 50 | 169 | 2.6 | 7.8 | 0.00 | 0.00 | 0.00 | 68 | 1012.4 |
| 20260504041558 | 50 | 174 | 2.6 | 5.2 | 0.00 | 0.00 | 0.00 | 71 | 1012.5 |
| 20260504040052 | 49 | 168 | 1.7 | 6.1 | 0.00 | 0.00 | 0.00 | 73 | 1012.6 |
| 20260504034549 | 49 | 169 | 1.7 | 7.8 | 0.00 | 0.00 | 0.00 | 73 | 1012.8 |
| 20260504033049 | 49 | 163 | 1.7 | 4.3 | 0.00 | 0.00 | 0.00 | 73 | 1012.9 |
| 20260504031549 | 49 | 163 | 1.7 | 5.2 | 0.00 | 0.00 | 0.00 | 73 | 1013.0 |
| 20260504030045 | 48 | 166 | 0.0 | 5.2 | 0.00 | 0.00 | 0.00 | 75 | 1013.1 |
| 20260504024600 | 48 | 167 | 2.6 | 6.1 | 0.00 | 0.00 | 0.00 | 78 | 1013.2 |
| 20260504023048 | 48 | 167 | 0.9 | 4.3 | 0.00 | 0.00 | 0.00 | 77 | 1013.5 |
| 20260504021543 | 48 | 169 | 0.0 | 1.7 | 0.00 | 0.00 | 0.00 | 76 | 1013.7 |
| 20260504020044 | 48 | 169 | 0.9 | 6.1 | 0.00 | 0.00 | 0.00 | 76 | 1013.5 |
| 20260504014541 | 48 | 166 | 2.6 | 4.3 | 0.00 | 0.00 | 0.00 | 77 | 1013.3 |
| 20260504013041 | 48 | 165 | 0.9 | 4.3 | 0.00 | 0.00 | 0.00 | 76 | 1013.6 |
| 20260504011541 | 48 | 185 | 0.9 | 3.5 | 0.00 | 0.00 | 0.00 | 76 | 1013.6 |
| 20260504010040 | 48 | 182 | 0.9 | 3.5 | 0.00 | 0.00 | 0.00 | 76 | 1013.4 |
| 20260504004545 | 48 | 170 | 0.0 | 2.6 | 0.00 | 0.00 | 0.00 | 75 | 1013.4 |
| 20260504003043 | 48 | 172 | 1.7 | 3.5 | 0.00 | 0.00 | 0.00 | 75 | 1013.5 |
| 20260504001542 | 49 | 229 | 0.9 | 5.2 | 0.00 | 0.00 | 0.00 | 73 | 1013.6 |
| 20260504000054 | 49 | 159 | 0.0 | 5.2 | 0.00 | 0.00 | 0.00 | 73 | 1013.8 |
| 20260503234542 | 49 | 208 | 1.7 | 6.1 | 0.00 | 0.00 | 0.00 | 71 | 1014.0 |
| 20260503233036 | 50 | 272 | 5.2 | 14.8 | 0.00 | 0.00 | 0.00 | 68 | 1014.5 |
| 20260503231533 | 51 | 277 | 3.5 | 17.4 | 0.00 | 0.00 | 0.00 | 65 | 1014.6 |
| 20260503230033 | 53 | 302 | 8.7 | 16.5 | 0.00 | 0.00 | 0.00 | 59 | 1014.4 |
| 20260503224532 | 55 | 278 | 7.0 | 17.4 | 0.00 | 0.00 | 0.00 | 50 | 1014.2 |
| 20260503223038 | 57 | 250 | 2.6 | 10.4 | 0.00 | 0.00 | 0.00 | 46 | 1014.0 |
| 20260503221537 | 58 | 273 | 2.6 | 11.3 | 0.00 | 0.00 | 0.00 | 43 | 1014.1 |
| 20260503220031 | 58 | 202 | 2.6 | 8.7 | 0.00 | 0.00 | 0.00 | 44 | 1014.0 |
| 20260503214527 | 58 | 244 | 1.7 | 9.6 | 0.00 | 0.00 | 0.00 | 43 | 1014.1 |
| 20260503213027 | 59 | 238 | 3.5 | 12.2 | 0.00 | 0.00 | 0.00 | 43 | 1014.3 |
| 20260503211525 | 59 | 311 | 1.7 | 9.6 | 0.00 | 0.00 | 0.00 | 42 | 1014.2 |
| 20260503210024 | 59 | 197 | 5.2 | 10.4 | 0.00 | 0.00 | 0.00 | 42 | 1014.5 |
| 20260503204523 | 59 | 295 | 4.3 | 8.7 | 0.00 | 0.00 | 0.00 | 39 | 1014.6 |
| 20260503203028 | 59 | 296 | 4.3 | 10.4 | 0.00 | 0.00 | 0.00 | 41 | 1014.8 |
| 20260503201519 | 59 | 263 | 2.6 | 9.6 | 0.00 | 0.00 | 0.00 | 42 | 1014.9 |
| 20260503200018 | 59 | 269 | 1.7 | 13.0 | 0.00 | 0.00 | 0.00 | 42 | 1015.0 |
| 20260503194516 | 61 | 281 | 2.6 | 11.3 | 0.00 | 0.00 | 0.00 | 43 | 1015.4 |
| 20260503193017 | 60 | 272 | 4.3 | 12.2 | 0.00 | 0.00 | 0.00 | 40 | 1015.4 |
| 20260503191513 | 59 | 288 | 5.2 | 11.3 | 0.00 | 0.00 | 0.00 | 40 | 1015.7 |
| 20260503190009 | 59 | 259 | 4.3 | 14.8 | 0.00 | 0.00 | 0.00 | 41 | 1016.0 |
| 20260503184508 | 60 | 257 | 5.2 | 10.4 | 0.00 | 0.00 | 0.00 | 43 | 1016.3 |
| 20260503183006 | 59 | 308 | 6.1 | 14.8 | 0.00 | 0.00 | 0.00 | 40 | 1016.5 |
| 20260503181503 | 59 | 290 | 5.2 | 9.6 | 0.00 | 0.00 | 0.00 | 47 | 1016.5 |
| 20260503180114 | 59 | 296 | 4.3 | 13.0 | 0.00 | 0.00 | 0.00 | 44 | 1016.6 |
| 20260503174558 | 59 | 295 | 3.5 | 13.0 | 0.00 | 0.00 | 0.00 | 43 | 1017.1 |
| 20260503173100 | 58 | 250 | 4.3 | 14.8 | 0.00 | 0.00 | 0.00 | 44 | 1017.3 |
| 20260503171554 | 58 | 195 | 3.5 | 9.6 | 0.00 | 0.00 | 0.00 | 44 | 1017.4 |